Location: Banios
(43.0451°N, 0.2335°E)
Time: 13:55:25
(UTC+00:00)

Meteor 1-16 Rocket - Pass Details

Date: 25 January 2021
Orbit: 790 x 907 km, 81.2° (Epoch: 25 February)

Event Time Altitude Azimuth Distance (km) Brightness Sun altitude
Rises 05:13:20 0° 188° (S) 3,498 7.4 -23.2°
Reaches altitude 10° 05:15:46 10° 189° (S) 2,571 6.7 -22.8°
Maximum altitude 05:21:41 89° 274° (W) 914 4.3 -21.7°
Drops below altitude 10° 05:27:39 10° 10° (N) 2,597 6.8 -20.6°
Sets 05:30:07 0° 11° (N) 3,536 7.5 -20.2°
